Location: Unspecified
(0.0000°N, 0.0000°E)
Time: 19:42:18
(UTC+00:00)

X-37B - Visible Passes

Search period start: 26 May 2018 00:00
Search period end: 05 June 2018 00:00
Orbit: 259 x 286 km, 43.2° (Epoch: 06 October)

Date Brightness Start Highest point End Pass type
(mag) Time Alt. Az. Time Alt. Az. Time Alt. Az.
31 May 3.3 19:14:27 10° NW 19:15:23 23° NW 19:15:23 23° NW visible
01 Jun 1.7 19:00:44 10° WNW 19:02:36 41° SW 19:02:43 40° SW visible
02 Jun 3.2 18:47:18 10° W 18:48:50 19° SW 18:50:04 12° S visible
03 Jun 4.0 18:34:33 10° WSW 18:35:02 11° SW 18:35:32 10° SSW visible
